Home   Weather   Rockhampton   Past weeks
Flag for Australia

Past Weather in Rockhampton, Queensland, Australia — Yesterday and Last 2 Weeks

Now
57 °F

Cloudy.


Feels Like: 55 °F
Forecast: 72 / 53 °F
Wind: 9 mph from Southeast

Location: Rockhampton Airport

Current Time: Jul 21, 2019 at 8:07:34 am

Latest Report: Jul 21, 2019 at 7:00 am


Visibility: N/A

Pressure: 30.12 "Hg

Humidity: 94%

Dew Point: 55 °F

Location of RockhamptonLocation

Past Weather in Rockhampton — Graph

°F

Rockhampton Temperature Yesterday

Maximum temperature yesterday: 75 °F (at 1:30 pm)
Minimum temperature yesterday: 45 °F (at 5:00 am)
Average temperature yesterday: 61 °F

High & Low Weather Summary for the Past Weeks

 TemperatureHumidityPressure
High81 °F (Jul 12, 2:30 pm)100% (Jul 6, 7:00 am)30.27 "Hg (Jul 6, 7:00 am)
Low41 °F (Jul 15, 6:30 am)13% (Jul 14, 2:30 pm)30.01 "Hg (Jul 17, 2:00 pm)
Average62 °F59%30.13 "Hg
* Reported Jul 6 6:03 am — Jul 21 6:44 am, Rockhampton. Weather by CustomWeather, © 2019

Note: Actual official high and low records may vary slightly from our data, if they occured in-between our weather recording intervals... More about our weather records

Advertising

Rockhampton Weather History for the Previous 24 Hours

Scroll right to see more
 ConditionsComfort  
Time TempWeatherWind HumidityBarometerVisibility
6:44 am
Sun, Jul 21
57 °FMore clouds than sun.9 mph94%30.12 "HgN/A
6:30 am57 °FSprinkles. Partly cloudy.8 mph94%30.12 "Hg3 mi
6:00 am59 °FSprinkles. Mostly cloudy.8 mph88%30.12 "Hg4 mi
5:30 am59 °FSprinkles. Overcast.7 mph82%30.12 "Hg3 mi
5:00 am61 °FSprinkles. Mostly cloudy.8 mph72%30.12 "HgN/A
4:30 am63 °FOvercast.6 mph68%30.12 "HgN/A
4:00 am61 °FMostly cloudy.5 mph72%30.12 "HgN/A
3:30 am61 °FPartly cloudy.6 mph72%30.09 "HgN/A
3:00 am61 °FOvercast.6 mph68%30.12 "HgN/A
2:30 am59 °FPartly cloudy.6 mph77%30.12 "HgN/A
2:00 am57 °FPassing clouds.No wind77%30.12 "HgN/A
1:30 am55 °FPassing clouds.No wind77%30.12 "HgN/A
1:00 am59 °FClear.5 mph72%30.12 "HgN/A
12:30 am59 °FPassing clouds.5 mph72%30.12 "HgN/A
12:00 am59 °FPassing clouds.6 mph72%30.12 "HgN/A
11:30 pm
Sat, Jul 20
61 °FOvercast.6 mph72%30.12 "HgN/A
11:00 pm59 °FPassing clouds.7 mph77%30.15 "HgN/A
10:30 pm57 °FClear.6 mph72%30.15 "HgN/A
10:00 pm61 °FClear.6 mph72%30.15 "HgN/A
9:30 pm64 °FClear.7 mph64%30.15 "HgN/A
9:00 pm64 °FClear.8 mph64%30.15 "HgN/A
8:30 pm64 °FClear.9 mph64%30.15 "HgN/A
8:00 pm64 °FClear.9 mph60%30.12 "HgN/A
7:30 pm66 °FClear.10 mph56%30.12 "HgN/A
7:00 pm66 °FClear.9 mph56%30.12 "HgN/A
6:30 pm66 °FClear.6 mph52%30.12 "HgN/A
6:00 pm68 °FClear.9 mph53%30.12 "HgN/A
5:30 pm68 °FClear.10 mph53%30.09 "HgN/A
5:00 pm70 °FSunny.10 mph50%30.09 "HgN/A
4:30 pm72 °FSunny.10 mph47%30.09 "HgN/A
4:00 pm72 °FSunny.10 mph44%30.09 "HgN/A
3:30 pm73 °FSunny.12 mph41%30.09 "HgN/A
3:00 pm73 °FSunny.12 mph38%30.09 "HgN/A
2:30 pm73 °FScattered clouds.13 mph41%30.09 "HgN/A
2:00 pm75 °FScattered clouds.13 mph39%30.12 "HgN/A
1:30 pm75 °FSunny.13 mph34%30.12 "HgN/A
1:00 pm73 °FScattered clouds.14 mph38%30.12 "HgN/A
12:30 pm73 °FScattered clouds.15 mph41%30.12 "HgN/A
12:00 pm73 °FSunny.13 mph41%30.15 "HgN/A
11:30 am72 °FSunny.12 mph41%30.15 "HgN/A
11:00 am72 °FSunny.10 mph44%30.18 "HgN/A
10:00 am68 °FSunny.8 mph49%30.18 "HgN/A
9:30 am66 °FSunny.8 mph52%30.18 "HgN/A
9:00 am64 °FSunny.9 mph52%30.18 "HgN/A
8:30 am61 °FSunny.9 mph59%30.18 "HgN/A
8:00 am59 °FSunny.8 mph63%30.15 "HgN/A
Weather by CustomWeather, © 2019

See weather overview